Torna al catalogo

MORSAT-1

AttivoMilitareSSO
NORAD 67278·PAYLOAD·🇷🇺 Russia
Questo nome del satellite non è ancora stato confermato da fonti ufficiali.

Lanciato Dec 28, 2025 da Vostochny Cosmodrome

Loading…

Prossimi Passaggi (prossime 24 ore)

TLE

AggiornatoSource: Space-Track

Epoca: Sep 14, 2026, 10:34 UTC

1 67278U 25313AG  26257.44061143  .00005058  00000-0  21460-3 0  9993
2 67278  97.3824 330.5293 0015426  58.2942 301.9796 15.23440331 39540

Traccia MORSAT-1 in tempo reale con AllMySat

Download on the App Store